Starlink 35362

operational
NORAD ID: 65888 Int'l Des: 2025-224 Owner: SPXS Country: US Constellation: starlink
LEOCIRCULAR

Starlink 35362について

説明を読み込み中...

リアルタイム位置

3D地球を読み込み中...

次回通過

高度履歴

Altitude vs Time

uPlot chart will show altitude changes over time

軌道要素

1 65888U 25224G 26061.12404791 .00027586 00000-0 94017-3 0 9995
2 65888 53.1588 46.6590 0000995 88.5414 271.5701 15.30196785 23665
Epoch: Mar 2, 2026 • Age: 28 hours

現在のステータス

高度 476.3 km
速度 7.63 km/s
衛星直下点 29.92°N, 157.16°W
打ち上げ日 Oct 7, 2025
運用期間 0.3 years
タイプ internet

技術仕様

分類 Payload
質量 575.00 kg
乾燥質量 530.00 kg
総質量 575.00 kg
長さ 0.30 m
直径 4.10 m
スパン 29.00 m
形状 Box + pan
製造者 SPXS
バスタイプ Starlink V2MO
フェーズステータス In Orbit
所有者/国 SPXS/US

大規模コンステレーション

Loading constellations...